Location: West Cummington
(42.4920°N, 72.9680°W)
Time: 01:47:38
(UTC-04:00)

Daily predictions for brighter satellites

Satellite Brightness Start Highest point End
(mag) Time Altitude Azimuth Time Altitude Azimuth Time Altitude Azimuth
Cosmos 1455 4.2 00:04:27 10° NW 00:07:09 19° W 00:07:33 18° W
Cosmos 2251 Rocket 4.5 00:05:41 10° N 00:10:43 40° ENE 00:12:20 32° ESE
GEOS 3 Rocket 3.5 00:11:06 58° SSE 00:12:12 84° SW 00:17:25 10° NW
H-2A R/B 4.2 00:10:13 13° WSW 00:12:32 16° W 00:15:49 10° NW
Cosmos 2297 Rocket 2.6 00:10:25 31° SW 00:13:00 60° WNW 00:18:38 10° NNE
ATLAS 3B R/B 2.6 00:06:52 10° NW 00:13:55 85° WSW 00:16:07 46° SSE
USA 238 DEB 4.2 00:11:17 10° NNW 00:18:12 56° NE 00:22:17 25° ESE
USA 238 4.2 00:11:23 10° NNW 00:18:18 55° NE 00:22:25 25° ESE
Meteor 1-26 Rocket 4.2 00:13:44 10° NNW 00:19:20 77° W 00:20:33 55° SSW
Geosat 4.4 00:14:45 10° NE 00:19:31 44° ESE 00:19:31 44° ESE
Lacrosse 4 Rocket 1.4 00:15:07 10° NNW 00:19:34 85° WSW 00:19:35 85° SW
Cosmos 2219 Rocket 3.8 00:17:17 10° NW 00:21:15 20° W 00:22:26 19° WSW
Cosmos 1269 Rocket 4.3 00:16:15 10° NNW 00:21:25 53° WSW 00:22:09 49° SW
Meteor 2-10 Rocket 4.1 00:16:54 10° N 00:22:20 53° ENE 00:23:43 43° ESE
Cosmos 1869 Rocket 4.0 00:21:54 50° WSW 00:22:25 54° W 00:26:50 10° N
CZ-2C R/B 3.6 00:18:27 10° NE 00:23:03 31° E 00:23:25 30° ESE
Cosmos 1733 Rocket 3.7 00:25:20 43° E 00:25:20 43° E 00:29:26 10° NNE
ALOS 2 2.5 00:27:29 79° WSW 00:27:33 80° WSW 00:31:58 10° NNW
Cosmos 389 Rocket 3.4 00:24:10 10° NNW 00:26:58 46° NW 00:26:58 46° NW
NOSS 2-3 (E) 3.8 00:27:22 68° S 00:27:54 76° ESE 00:33:33 10° NE
Cosmos 1603 4.1 00:26:11 10° NNW 00:31:48 56° ENE 00:33:35 40° ESE
Landsat 5 3.5 00:33:06 84° SE 00:33:15 88° ENE 00:37:48 10° NNW
Coronas F rocket 4.2 00:40:07 16° NE 00:40:07 16° NE 00:40:52 10° NNE
Cosmos 1606 4.5 00:36:29 10° NNE 00:39:38 23° ENE 00:39:39 23° ENE
H-2A R/B 2.7 00:35:53 10° N 00:40:02 64° WNW 00:40:11 63° W
Cosmos 1689 Rocket 3.7 00:42:10 38° NW 00:42:10 38° NW 00:44:24 10° NNW
Cosmos 44 Rocket 3.3 00:40:52 70° S 00:41:26 81° ESE 00:46:42 10° NE
CZ-4B R/B 2.6 00:44:09 41° NW 00:44:09 41° NW 00:46:40 10° NNW
COSMOS 2455 3.2 00:39:18 10° NW 00:45:03 47° WSW 00:45:49 44° SW
MOS 1-B Rocket 3.9 00:44:31 47° SE 00:46:06 69° ENE 00:51:39 10° N
Cosmos 494 Rocket 4.4 00:43:30 10° NNW 00:48:42 58° ENE 00:49:55 46° ESE
Nadezhda 3 Rocket 4.1 00:42:39 10° N 00:48:51 65° E 00:50:38 46° SE
Cosmos 1610 Rocket 4.4 00:47:55 54° S 00:49:27 90° E 00:55:37 10° N
Cosmos 2074 Rocket 4.2 00:47:39 43° SW 00:49:35 63° W 00:55:52 10° N
Cosmos 2237 Rocket 3.9 00:46:03 10° WNW 00:49:48 18° W 00:50:31 18° WSW
Meteor 2-3 Rocket 4.0 00:49:35 47° SW 00:51:03 63° WNW 00:56:45 10° N
BREEZE-M TANK 3.2 00:42:59 10° W 00:51:39 63° N 00:54:35 10° ENE
Meteor 1-10 Rocket 4.3 00:47:04 10° N 00:53:02 79° E 00:54:27 54° SSE
NOSS 2-3 (C) 4.2 00:53:45 48° WSW 00:55:06 69° NW 01:00:53 10° NNE
SeaSat 1 3.9 00:55:21 24° WSW 00:55:21 24° WSW 00:59:09 10° NW
Okean 1-7 4.4 00:52:04 10° NNW 00:55:37 27° W 00:55:37 27° W
Cosmos 1892 3.1 00:58:06 58° NNW 00:58:06 58° NNW 01:01:21 10° N
Aureole 2 Rocket 4.2 01:01:19 10° NNW 01:02:51 25° NW 01:02:51 25° NW
CZ-4C R/B 3.3 00:59:09 10° NNW 01:06:05 59° NE 01:12:08 17° SE
Helios 1A Rocket 3.2 01:02:49 10° N 01:06:57 60° WNW 01:06:57 60° WNW
Cosmos 1674 Rocket 3.6 01:08:59 10° NNW 01:13:19 70° W 01:13:19 70° W
NOSS 3-4 (A) 4.1 01:14:01 37° SE 01:15:00 40° ESE 01:21:00 10° NE
NOSS 3-4 (C) 4.1 01:14:08 37° SE 01:15:05 39° ESE 01:21:05 10° NE
NOSS 3-2 (A) 4.4 01:08:57 10° NNW 01:16:18 60° NE 01:23:28 13° SE
Cosmos 2154 Rocket 4.0 01:14:44 51° SSW 01:16:27 80° W 01:22:47 10° N
ASTEX 1 4.3 01:12:33 10° N 01:17:00 36° WNW 01:17:51 33° W
Cosmos 1607 3.8 01:13:00 10° NNW 01:19:11 85° ENE 01:21:19 43° SE
Cosmos 1782 3.2 01:15:33 10° NNW 01:18:58 56° NW 01:18:58 56° NW
Cosmos 1238 Rocket 3.0 01:18:13 10° N 01:21:56 67° NNE 01:21:56 67° NNE
Cosmos 1975 Rocket 3.7 01:18:26 10° N 01:22:41 46° ENE 01:23:11 44° E
BREEZE-M DEB (TANK) 4.4 01:08:31 10° WNW 01:24:28 89° NNE 01:28:28 14° ESE
Cosmos 1825 2.8 01:26:16 49° ENE 01:26:16 49° ENE 01:29:32 10° NNE
Cosmos 921 Rocket 2.9 01:26:24 80° NW 01:26:24 80° NW 01:30:29 10° NNE
Cosmos 1340 Rocket 3.9 01:26:58 33° WNW 01:26:58 33° WNW 01:30:26 10° N
Cosmos 1408 3.3 01:27:35 49° ENE 01:27:35 49° ENE 01:30:49 10° NNE
Cosmos 1908 Rocket 3.4 01:29:40 83° W 01:29:41 83° W 01:34:03 10° N
PSLV R/B 3.8 01:32:17 83° NE 01:32:17 83° NE 01:36:17 10° NNW
Cosmos 2084 Rocket 3.7 01:33:17 52° NW 01:33:17 52° NW 01:37:00 10° NNE
Cosmos 2263 Rocket 2.6 01:35:36 42° SE 01:36:41 48° ESE 01:42:07 10° NE
RESURS DK-1 4.0 01:37:30 24° E 01:37:30 24° E 01:40:35 10° NE
FALCON 9 R/B 4.4 01:33:11 10° W 01:36:25 16° WSW 01:36:25 16° WSW
SL-16 R/B 4.1 01:38:30 10° WNW 01:41:36 15° W 01:41:37 15° W
Cosmos 2341 Rocket 4.3 01:44:41 42° SW 01:46:41 59° W 01:53:00 10° N
CZ-2C R/B 3.4 01:46:35 51° SSW 01:47:50 63° WSW 01:53:28 10° NNW
ATLAS 2A CENTAUR R/B 4.5 01:49:05 19° SE 01:49:05 19° SE 01:55:57 10° ESE
Meteor 1-27 Rocket 3.9 01:44:03 10° NNW 01:49:49 60° W 01:51:04 49° SW
Sich 1 Rocket 4.4 01:49:59 37° W 01:50:23 38° WNW 01:54:37 10° N
Cosmos 44 3.8 01:51:01 42° WSW 01:52:39 61° NW 01:58:05 10° NNE
SL-08 R/B 4.5 01:50:53 44° S 01:52:56 76° E 01:59:14 10° N
Cosmos 1959 Rocket 4.4 01:59:55 45° S 02:02:04 88° W 02:08:20 10° N
Cosmos 1862 3.9 02:02:07 43° WNW 02:02:07 43° WNW 02:05:57 10° N
CZ-2C R/B 3.7 01:58:39 10° N 02:03:19 34° WNW 02:04:56 28° WSW
ATLAS 3B R/B 4.3 01:59:53 10° WNW 02:03:20 15° WSW 02:03:20 15° WSW
Cosmos 1943 3.2 02:01:34 10° NNW 02:07:10 60° WSW 02:08:22 48° SSW
SL-8 Rocket 4.1 02:05:15 43° SSW 02:07:23 69° W 02:13:43 10° N
Cosmos 1867 3.6 02:02:39 10° NNW 02:08:10 79° NE 02:11:13 27° SE
USA 238 DEB 4.4 02:02:44 10° NW 02:08:51 33° WSW 02:09:41 32° SW
USA 238 4.4 02:02:49 10° NW 02:08:58 33° WSW 02:09:49 32° SW
Okean 3 4.1 02:08:01 10° NNW 02:12:05 42° W 02:12:06 42° W
Cosmos 2218 Rocket 4.0 02:10:59 42° SSW 02:13:12 74° W 02:19:33 10° N
Cosmos 1606 4.4 02:12:17 10° NW 02:14:46 22° WNW 02:14:46 22° WNW
Cosmos 1624 Rocket 4.1 02:17:18 44° SSE 02:18:47 65° ESE 02:23:58 10° NNE
JB-3 4.2 02:15:15 10° NNE 02:19:07 76° ESE 02:19:27 69° SSE
Cosmos 1242 Rocket 2.5 02:16:17 10° N 02:19:47 69° E 02:19:51 69° E
Landsat 4 3.7 02:20:18 67° SE 02:20:43 78° ENE 02:24:31 10° N
Meteor 1-18 Rocket 4.5 02:19:56 10° N 02:25:33 66° ENE 02:28:50 26° SSE
Iridium 4 Rocket 3.3 02:23:15 10° N 02:27:54 85° E 02:29:32 43° S
Abrixas rocket 2.9 02:29:26 46° E 02:29:26 46° E 02:32:05 10° ENE
USA 234 3.1 02:22:34 10° SE 02:29:07 81° SW 02:35:42 10° NW
Meteor 2-19 Rocket 4.4 02:26:46 37° S 02:29:26 85° E 02:35:38 10° N
Cosmos 2366 rocket 4.1 02:27:26 38° SW 02:29:46 63° W 02:35:55 10° N
Okean 2 Rocket 3.9 02:30:45 34° W 02:31:32 36° WNW 02:35:45 10° N
Cosmos 1184 Rocket 3.4 02:34:38 47° WNW 02:34:38 47° WNW 02:37:45 10° N
ARIANE 5 R/B 4.2 02:35:38 10° NE 02:39:41 24° E 02:43:06 13° SE
ADEOS 4.4 02:34:57 10° NNE 02:39:55 42° E 02:42:42 23° SSE
Cosmos 1452 Rocket 4.5 02:37:48 24° SSE 02:40:16 39° ESE 02:45:08 10° NE
Meteor 2-8 Rocket 4.5 02:35:18 10° NNW 02:41:18 64° W 02:43:58 34° SSW
CENTAUR R/B 3.8 02:33:57 10° NNW 02:41:30 53° NE 02:49:32 10° ESE
NOSS 3-2 (C) 4.1 02:35:36 10° NW 02:42:58 58° WSW 02:48:50 19° S
NPP 3.6 02:39:57 10° NNE 02:45:23 83° ESE 02:47:49 34° S
CBERS-1 4.1 02:43:09 10° NNE 02:48:19 74° ESE 02:50:41 33° S
IRAS Rocket 4.2 02:43:06 10° NNE 02:48:40 90° WNW 02:51:15 33° SSW
SL-08 R/B 3.3 02:47:35 31° S 02:49:58 84° WSW 02:54:55 10° NNW
Cosmos 1727 Rocket 4.3 02:44:07 10° NNW 02:50:05 49° W 02:52:37 31° SW
CZ-4C R/B 3.5 02:48:07 10° NW 02:54:32 35° WSW 02:57:14 28° SSW
Meteor 1-20 Rocket 4.3 02:51:41 30° S 02:54:44 84° E 03:00:34 10° NNE
Cosmos 1812 2.6 02:56:53 10° N 03:00:48 81° W 03:02:06 40° S
ERS-2 2.1 02:57:29 10° NNE 03:01:12 80° WNW 03:02:13 46° SSW
Cosmos 1300 Rocket 3.4 03:02:44 35° S 03:04:31 89° E 03:08:54 10° N
USA 161 2.4 03:04:09 29° SE 03:05:11 45° ENE 03:07:59 10° N
NOSS 3-4 (A) 4.4 03:01:26 19° WSW 03:05:50 44° NW 03:12:09 10° NNE
NOSS 3-4 (C) 4.3 03:01:33 19° WSW 03:05:55 44° NW 03:12:14 10° NNE
Okean 1 3.2 03:02:33 10° N 03:06:33 81° W 03:08:12 34° S
Cosmos 1190 Rocket 4.1 03:02:29 10° NNW 03:07:37 58° WSW 03:10:22 26° S
AQUA 3.8 03:03:26 10° N 03:08:12 71° WNW 03:10:25 31° SSW
CZ-2D R/B 3.5 03:03:21 10° NNE 03:08:18 35° E 03:13:06 11° SSE
Cosmos 1536 Rocket 4.4 03:08:19 10° NNW 03:12:18 34° W 03:13:24 30° WSW
RESURS DK-1 3.6 03:13:25 22° W 03:15:09 31° WNW 03:18:53 10° N
Cosmos 1140 Rocket 4.3 03:10:10 10° N 03:15:11 50° ENE 03:20:08 10° SE
Cosmos 2056 Rocket 4.1 03:13:32 25° WSW 03:16:10 44° WNW 03:21:12 10° N
Cosmos 1844 Rocket 2.8 03:14:56 24° S 03:18:23 72° ESE 03:24:03 10° NNE
Cosmos 2263 Rocket 3.6 03:17:17 16° WSW 03:20:49 28° NW 03:25:40 10° N
Cosmos 1844 4.1 03:19:01 20° S 03:22:52 57° ESE 03:28:29 10° NNE
Spot 4 Rocket 4.0 03:17:51 10° NNE 03:23:02 89° ESE 03:26:23 22° SSW
Cosmos 1934 Rocket 4.0 03:18:43 19° S 03:23:20 87° E 03:29:32 10° N
Cosmos 407 Rocket 3.7 03:19:23 10° NNW 03:24:23 51° WSW 03:27:41 21° S
IRS-1C 4.3 03:22:50 10° N 03:28:06 61° WNW 03:31:24 23° SW
NOSS 2-2 (C) 4.3 03:26:21 22° S 03:28:40 44° ESE 03:33:07 10° NE
COSMOS 2406 3.4 03:24:26 10° NW 03:30:01 50° WSW 03:34:45 14° S
Cosmos 676 Rocket 4.0 03:25:58 10° NNW 03:31:05 60° WSW 03:35:31 14° S
Okean 1-7 Rocket 3.9 03:29:29 10° NNW 03:33:56 52° W 03:36:41 22° SSW
Cosmos 2278 Rocket 2.8 03:32:46 14° S 03:37:24 50° ESE 03:42:53 10° NE
SL-27 R/B 3.2 03:34:22 10° NW 03:37:44 36° WSW 03:39:04 26° SSW
Cosmos 489 Rocket 4.4 03:32:16 10° NNW 03:38:28 67° WSW 03:44:36 10° S
SL-16 R/B 2.6 03:32:25 10° SSE 03:38:41 88° ENE 03:44:57 10° NNW
Okean 1 Rocket 3.8 03:41:18 22° SW 03:43:39 39° WNW 03:47:51 10° N
IRS-1D 3.5 03:38:32 10° NNE 03:43:40 88° ESE 03:47:47 16° SSW
ATLAS 5 CENTAUR R/B 3.4 03:38:10 10° NNW 03:43:55 50° NE 03:50:05 10° ESE
Okean O Rocket 3.3 03:43:22 10° NE 03:47:12 29° E 03:51:00 10° SSE
Cosmos 1602 3.8 03:45:03 22° SSW 03:47:26 62° W 03:51:16 10° N
UNK 3.7 03:46:40 16° SW 03:53:01 57° SSE 03:56:03 10° ENE
CZ-2D R/B 4.4 03:50:06 10° NNE 03:53:56 44° E 03:57:48 10° S
NOSS 2-2 (E) 3.6 03:51:36 19° SSW 03:54:35 87° ESE 03:59:33 10° NE
Cosmos 2082 Rocket 4.0 03:49:52 10° N 03:55:06 35° ENE 04:00:17 10° ESE
Cosmos 1605 Rocket 4.0 03:49:43 13° SSW 03:55:16 77° W 04:01:34 10° N
Resurs 1-4 Rocket 2.1 03:51:10 10° NNE 03:56:31 88° WNW 04:01:31 12° SSW
GP-B 4.5 03:53:01 10° NNW 03:56:33 23° WNW 03:58:56 15° WSW
BREEZE-M DEB (TANK) 4.1 03:50:50 10° WNW 03:57:07 32° NNW 03:59:45 10° NE
Meteor 2-4 Rocket 3.6 03:51:52 10° N 03:57:19 90° ENE 04:02:41 10° S
Cosmos 2123 Rocket 4.1 03:51:52 10° NNW 03:58:05 60° W 04:04:16 10° S
Meteor 2-15 Rocket 4.4 03:51:59 10° NNW 03:58:08 73° W 04:04:14 10° S
Cosmos 1954 Rocket 4.4 03:54:06 10° NNW 03:58:58 43° WSW 04:03:50 10° S
Cosmos 1461 3.4 03:57:06 15° SSW 04:01:00 64° ESE 04:05:35 10° NE
Cosmos 1536 3.0 04:00:52 15° SSW 04:04:03 57° W 04:08:05 10° N
Abrixas rocket 3.6 04:02:51 10° W 04:06:00 36° NNW 04:09:09 10° NE
Cosmos 1455 Rocket 3.2 04:05:12 10° S 04:09:39 77° E 04:14:07 10° N
USA 129 2.3 04:08:43 10° SSE 04:10:48 56° ENE 04:12:53 10° N
UNKNOWN OBJECT B 2.9 04:07:31 10° N 04:11:38 81° WNW 04:15:43 10° SSW
USA 234 4.3 04:08:01 10° S 04:12:44 21° WSW 04:17:29 10° WNW
Cosmos 1025 Rocket 3.6 04:10:30 10° NNW 04:14:29 38° W 04:18:27 10° SSW
Cosmos 1633 3.0 04:13:03 13° SSW 04:15:59 44° WNW 04:19:29 10° N
Gbstr 26 Del rocket 2.8 04:12:40 12° WSW 04:16:10 67° NNW 04:19:53 10° NE
Cosmos 614 Rocket 3.9 04:11:16 10° NNW 04:16:26 73° WSW 04:21:32 10° S
PSLV R/B 4.4 04:13:22 10° NNE 04:17:30 62° E 04:21:35 10° S
ARIANE 5 R/B 3.2 04:14:17 10° N 04:18:56 39° WNW 04:23:26 11° SW
Cosmos 1356 3.8 04:18:17 11° SSW 04:21:31 51° WNW 04:25:00 10° N
MTI 4.3 04:19:40 10° S 04:22:50 42° W 04:26:00 10° NNW
SME Rocket 3.5 04:20:40 10° SSW 04:24:08 36° W 04:27:52 10° NNW
Thor Agena Rocket 3.8 04:25:14 10° SSE 04:30:25 78° ENE 04:35:33 10° NNW
COSMOS 2487 3.4 04:27:28 10° NW 04:30:40 29° WSW 04:33:50 10° SSW
CENTAUR R/B 3.4 04:24:53 10° NW 04:32:15 43° WSW 04:39:55 10° S
Cosmos 2173 Rocket 4.1 04:26:50 10° S 04:32:55 84° E 04:39:06 10° N
Cosmos 1544 Rocket 4.2 04:30:58 10° SSW 04:35:07 40° WNW 04:39:17 10° N
Cosmos 1802 Rocket 4.2 04:30:39 10° S 04:36:47 79° E 04:42:55 10° N
Cosmos 1833 Rocket 3.4 04:36:19 10° NNW 04:41:54 62° ENE 04:47:26 10° SE
MOZ.5/SAFIR/RUBIN 5/SL-8 3.8 04:37:19 10° S 04:42:06 82° WSW 04:46:55 10° NNW
